This is the latest recevied weather packets stored in our database for station/object K9ZOG. If no packets are shown the sender has not sent any weather packets the latest 10 day(s).
| Time | Temp. | Humidity | Pressure | Rain* | Wind** | Luminosity | Snow |
|---|---|---|---|---|---|---|---|
| 1777659852 | 8.33° C | 61% | 1016 hPa | 0 mm | - | 865 W/m² | - |
| 1777659552 | 8.33° C | 60% | 1016 hPa | 0 mm | - | 862 W/m² | - |
| 1777659253 | 8.33° C | 59% | 1015.9 hPa | 0 mm | - | 534 W/m² | - |
| 1777658952 | 7.78° C | 59% | 1015.9 hPa | 0 mm | - | 792 W/m² | - |
| 1777658653 | 7.78° C | 61% | 1015.9 hPa | 0 mm | - | 1208 W/m² | - |
| 1777658354 | 7.78° C | 59% | 1015.9 hPa | 0 mm | - | 487 W/m² | - |
| 1777658054 | 7.78° C | 60% | 1015.9 hPa | 0 mm | - | 473 W/m² | - |
| 1777657753 | 7.78° C | 60% | 1015.9 hPa | 0 mm | - | 515 W/m² | - |
| 1777657453 | 7.78° C | 61% | 1015.9 hPa | 0 mm | - | 491 W/m² | - |
| 1777657160 | 8.33° C | 61% | 1015.9 hPa | 0 mm | - | 463 W/m² | - |
| 1777656854 | 8.33° C | 60% | 1015.9 hPa | 0 mm | - | 488 W/m² | - |
| 1777656552 | 8.33° C | 59% | 1015.8 hPa | 0 mm | - | 563 W/m² | - |
| 1777656253 | 8.33° C | 58% | 1015.8 hPa | 0 mm | - | 516 W/m² | - |
| 1777655953 | 8.33° C | 57% | 1015.8 hPa | 0 mm | - | 584 W/m² | - |
| 1777655654 | 8.33° C | 56% | 1015.8 hPa | 0 mm | - | 460 W/m² | - |
| 1777655356 | 8.89° C | 54% | 1015.8 hPa | 0 mm | - | 368 W/m² | - |
| 1777655054 | 8.33° C | 59% | 1015.7 hPa | 0 mm | - | 358 W/m² | - |
| 1777654753 | 8.33° C | 57% | 1015.7 hPa | 0 mm | - | 438 W/m² | - |
| 1777654453 | 7.78° C | 59% | 1015.8 hPa | 0 mm | - | 457 W/m² | - |
| 1777654155 | 7.78° C | 60% | 1015.8 hPa | 0 mm | - | 395 W/m² | - |
| 1777653854 | 7.22° C | 62% | 1015.7 hPa | 0 mm | - | 344 W/m² | - |
| 1777653553 | 6.67° C | 59% | 1015.8 hPa | 0 mm | - | 394 W/m² | - |
| 1777653253 | 6.67° C | 61% | 1015.8 hPa | 0 mm | - | 363 W/m² | - |
| 1777652952 | 6.67° C | 61% | 1015.8 hPa | 0 mm | - | 344 W/m² | - |
| 1777652652 | 6.67° C | 62% | 1015.8 hPa | 0 mm | - | 284 W/m² | - |
* Rain latest hour (hover to see other rain measurements)
** Current wind speed in m/s (hover to see current wind gust speed)